Corpus Christi, Texas Weather Center

Moon Phase Calendar



Online Cameras

 


      

Current Conditions in Ingleside
3/1/2021 11:19:30 AM

56°F
Feels Like 46
Clouds
Humidity
94%
Pressure
30.03"
Wind
20.7 mph (N)
Dew Point
54°F
UV Index
1/10 (Low)
Visibility
6 mi

Hourly Forecast

Date & Time Mon, Mar 1
11:00 AM
Mon, Mar 1
12:00 PM
Mon, Mar 1
1:00 PM
Mon, Mar 1
2:00 PM
Mon, Mar 1
3:00 PM
Mon, Mar 1
4:00 PM
Mon, Mar 1
5:00 PM
Mon, Mar 1
6:00 PM
Mon, Mar 1
7:00 PM
Mon, Mar 1
8:00 PM
Mon, Mar 1
9:00 PM
Mon, Mar 1
10:00 PM
Mon, Mar 1
11:00 PM
Tue, Mar 2
12:00 AM
Tue, Mar 2
1:00 AM
Tue, Mar 2
2:00 AM
Tue, Mar 2
3:00 AM
Tue, Mar 2
4:00 AM
Tue, Mar 2
5:00 AM
Tue, Mar 2
6:00 AM
Tue, Mar 2
7:00 AM
Tue, Mar 2
8:00 AM
Tue, Mar 2
9:00 AM
Tue, Mar 2
10:00 AM
Tue, Mar 2
11:00 AM
Tue, Mar 2
12:00 PM
Tue, Mar 2
1:00 PM
Tue, Mar 2
2:00 PM
Tue, Mar 2
3:00 PM
Tue, Mar 2
4:00 PM
Tue, Mar 2
5:00 PM
Tue, Mar 2
6:00 PM
Tue, Mar 2
7:00 PM
Tue, Mar 2
8:00 PM
Tue, Mar 2
9:00 PM
Tue, Mar 2
10:00 PM
Tue, Mar 2
11:00 PM
Wed, Mar 3
12:00 AM
Wed, Mar 3
1:00 AM
Wed, Mar 3
2:00 AM
Wed, Mar 3
3:00 AM
Wed, Mar 3
4:00 AM
Wed, Mar 3
5:00 AM
Wed, Mar 3
6:00 AM
Wed, Mar 3
7:00 AM
Wed, Mar 3
8:00 AM
Wed, Mar 3
9:00 AM
Wed, Mar 3
10:00 AM
Condition
Rain

Clouds

Clouds

Rain

Rain

Clouds

Rain

Clouds

Clouds

Clouds

Clouds

Clouds

Clouds

Clouds

Clouds

Clouds

Clouds

Clouds

Clouds

Clouds

Clouds

Clouds

Clouds

Clouds

Clouds

Clouds

Clouds

Clouds

Clouds

Clouds

Clouds

Clouds

Clear

Clear

Clear

Clear

Clear

Clear

Clear

Clear

Clear

Clear

Clear

Clear

Clear

Clear

Clear

Clear
Temperature 56°F58°F59°F58°F59°F60°F61°F61°F60°F59°F58°F57°F56°F55°F55°F54°F53°F53°F52°F52°F52°F52°F52°F52°F53°F53°F56°F58°F58°F60°F60°F60°F59°F59°F58°F57°F56°F55°F55°F54°F54°F53°F53°F52°F52°F52°F54°F55°F
Feels Like 47°F50°F51°F49°F50°F51°F52°F52°F49°F48°F46°F44°F43°F42°F43°F41°F40°F40°F39°F39°F39°F40°F40°F41°F42°F43°F47°F49°F50°F52°F52°F52°F53°F52°F50°F49°F48°F48°F48°F48°F47°F47°F47°F46°F45°F46°F48°F50°F
Cloudiness 90%95%98%99%100%100%100%100%100%100%100%100%100%100%100%100%100%100%100%95%100%100%100%100%100%100%23%58%72%76%80%68%1%1%0%0%0%0%0%0%0%0%0%0%0%0%0%0%
Visibility 6 mi6 mi6 mi6 mi6 mi6 mi6 mi6 mi6 mi6 mi6 mi6 mi6 mi6 mi6 mi6 mi6 mi6 mi6 mi6 mi6 mi6 mi6 mi6 mi6 mi6 mi6 mi6 mi6 mi6 mi6 mi6 mi6 mi6 mi6 mi6 mi6 mi6 mi6 mi6 mi6 mi6 mi6 mi6 mi6 mi6 mi6 mi6 mi
Precipitation 74%89%72%100%100%76%96%72%31%27%23%19%15%15%11%7%7%7%7%3%0%0%0%0%0%0%0%0%0%0%0%0%0%0%0%0%0%0%0%0%0%0%0%0%0%0%0%0%
Humidity 94%90%87%88%87%85%84%83%81%81%79%78%78%78%76%75%74%74%74%74%74%74%75%75%74%75%69%65%65%62%61%62%65%67%70%71%71%70%70%72%74%75%77%78%80%79%75%72%
Dew Point 54°F55°F55°F55°F55°F56°F56°F56°F54°F54°F52°F51°F50°F49°F48°F47°F45°F45°F44°F44°F44°F45°F44°F44°F45°F45°F46°F46°F47°F47°F46°F47°F48°F48°F48°F48°F47°F46°F45°F46°F46°F46°F46°F46°F46°F46°F46°F46°F
Pressure 30.03"30.03"30.03"30"30"30"30.03"30.06"30.09"30.12"30.15"30.15"30.18"30.18"30.18"30.18"30.15"30.15"30.18"30.18"30.21"30.21"30.24"30.24"30.24"30.24"30.21"30.18"30.15"30.12"30.12"30.12"30.12"30.15"30.15"30.15"30.15"30.15"30.15"30.15"30.12"30.12"30.12"30.15"30.15"30.18"30.21"30.21"
Wind Speed 18.3 mph17.1 mph16.6 mph18.8 mph18.3 mph18.3 mph18.9 mph19.1 mph20.8 mph21 mph22.1 mph23.7 mph23.8 mph22.8 mph21.4 mph21.7 mph22 mph20.8 mph20.6 mph20.4 mph20.7 mph19.9 mph18.6 mph17.1 mph16.7 mph15.7 mph13.8 mph13 mph13.5 mph12.2 mph12.8 mph11.6 mph9.6 mph11.4 mph13.8 mph13 mph12.3 mph11.1 mph10.6 mph9.7 mph9.4 mph8.6 mph8.9 mph9.6 mph10 mph9.3 mph8.1 mph6.6 mph
Wind
Direction

N

N
357°
N
347°
NNW
353°
N
350°
N
348°
NNW
346°
NNW
345°
NNW
348°
NNW
347°
NNW
345°
NNW
344°
NNW
345°
NNW
341°
NNW
336°
NNW
337°
NNW
336°
NNW
335°
NNW
331°
NNW
333°
NNW
332°
NNW
337°
NNW
340°
NNW
345°
NNW
341°
NNW
341°
NNW
340°
NNW
343°
NNW
344°
NNW
355°
N
357°
N
357°
N

N
18°
NNE
27°
NNE
32°
NNE
32°
NNE
31°
NNE
30°
NNE
32°
NNE
32°
NNE
21°
NNE
26°
NNE
26°
NNE
21°
NNE
31°
NNE
44°
NE

Daily Forecast

Date High Low Precip. Humidity
Today
Mar 1

Rain
68 °F
56 °F
100%
90%
Tuesday
Mar 2

Clouds
60 °F
52 °F
15%
75%
Wednesday
Mar 3

Clear
60 °F
52 °F
0%
65%
Thursday
Mar 4

Clouds
65 °F
59 °F
0%
65%
Friday
Mar 5

Rain
70 °F
64 °F
44%
86%
Saturday
Mar 6

Clouds
65 °F
58 °F
8%
72%
Sunday
Mar 7

Rain
64 °F
57 °F
28%
76%
Monday
Mar 8

Rain
68 °F
63 °F
92%
81%
Tuesday
Mar 9

Clouds
69 °F
66 °F
26%
81%
Wednesday
Mar 10

Clear
70 °F
67 °F
17%
83%
Thursday
Mar 11

Rain
71 °F
68 °F
20%
83%
Friday
Mar 12

Rain
71 °F
68 °F
32%
85%
Saturday
Mar 13

Rain
72 °F
67 °F
20%
86%
Sunday
Mar 14

Clouds
71 °F
68 °F
9%
85%
Monday
Mar 15

Clouds
72 °F
68 °F
6%
90%
Tuesday
Mar 16

Rain
75 °F
67 °F
20%
85%


Temperature 8-14 Day Outlook



Precipitation 8-14 Day Outlook




Quick Links
Corpus Christi, Texas News
Corpus Christi, Texas Photos
Corpus Christi, Texas Videos




About Us
Contact Us
Site Map
Search Site
Advertise With Us
   
CorpusChristi.USGulf.info
THE CORPUS CHRISTI, TEXAS WEBSITE

Copyright 2021, Coastal Town
Privacy    |    Legal